Sawtelle Peak

Sawtelle summit stationLocated on Sawtelle Peak in the Centennials. Use the Sawtelle SNOdar or the nearest SNOTEL station for snow depth data: White Elephant. The data on this page is also available to view at dataGarrison.com.

 

Elevation
9885ft
Jump to table bottom
Date Time Temperature
deg F
RH, % Wind Speed Wind Gust Wind Direction Pressure Light
02/22/24 07:00 14.8 94 6 17 NW - 314 705.300 17,490
02/22/24 06:00 14.1 94 1 12 NW - 331 704.900 3
02/22/24 05:00 15.4 95 6 16 NW - 303 704.760 0
02/22/24 04:00 16.0 95 3 16 NW - 312 704.500 1
02/22/24 03:00 16.5 95 5 15 NW - 310 704.420 1
02/22/24 02:00 16.6 96 8 14 NW - 307 704.460 1
02/22/24 01:00 16.4 95 5 13 NW - 319 704.240 1
02/22/24 00:00 16.1 93 7 17 NW - 314 703.840 2
02/21/24 23:00 16.4 94 11 20 NW - 307 703.720 1
02/21/24 22:00 16.3 90 9 18 NW - 314 703.320 2
02/21/24 21:00 16.2 88 9 15 NW - 309 703.100 2
02/21/24 20:00 16.2 90 9 16 NW - 309 702.540 2
02/21/24 19:00 16.4 89 7 13 NW - 319 702.320 2
02/21/24 18:00 17.2 89 8 12 NW - 310 702.020 95
02/21/24 17:00 18.3 89 5 10 NW - 317 701.360 61,792
02/21/24 16:00 21.2 87 3 15 NW - 324 700.960 229,595
02/21/24 15:00 21.5 82 2 15 N - 338 700.580 398,414
02/21/24 14:00 25.5 81 0 15 N - 345 700.140 656,729
02/21/24 13:00 26.0 77 1 10 N - 358 700.120 648,593
02/21/24 12:00 20.9 86 2 6 N - 344 700.280 746,224
02/21/24 11:00 20.0 91 1 18 NW - 319 700.260 459,434
02/21/24 10:00 18.7 94 3 7 NW - 314 700.120 331,293
02/21/24 09:00 18.9 96 3 9 W - 285 699.920 616,049
02/21/24 08:00 18.9 96 3 7 NW - 293 699.860 349,599
02/21/24 07:00 15.6 95 5 13 W - 272 699.780 13,295
02/21/24 06:00 16.0 95 7 15 W - 251 700.060 0
02/21/24 05:00 16.4 95 7 20 W - 253 699.900 0
02/21/24 04:00 16.5 95 10 16 SW - 244 700.100 0
02/21/24 03:00 16.2 95 10 18 W - 250 700.220 0
02/21/24 02:00 16.8 95 7 25 W - 271 700.540 0
02/21/24 01:00 17.2 95 7 25 W - 286 701.120 1
02/21/24 00:00 17.6 95 10 27 W - 285 701.560 1
02/20/24 23:00 18.1 95 14 37 W - 272 701.660 1
02/20/24 22:00 18.5 96 12 26 W - 284 702.520 1
02/20/24 21:00 18.5 96 18 28 W - 286 701.860 1
02/20/24 20:00 18.8 96 13 35 W - 284 701.840 1
02/20/24 19:00 18.9 96 16 48 W - 284 702.080 1
02/20/24 18:00 18.9 96 22 40 W - 279 701.500 66
02/20/24 17:00 18.8 95 21 37 W - 286 701.680 22,003
02/20/24 16:00 20.1 96 20 36 W - 282 702.060 130,947
02/20/24 15:00 20.9 96 15 38 W - 282 702.220 175,695
02/20/24 14:00 21.6 96 18 32 W - 282 702.360 266,206
02/20/24 13:00 21.4 96 21 33 W - 275 701.940 559,098
02/20/24 12:00 20.9 96 19 31 W - 268 702.720 300,784
02/20/24 11:00 20.5 96 24 33 W - 272 702.280 351,633
02/20/24 10:00 20.0 96 17 27 W - 272 702.740 284,512
02/20/24 09:00 20.0 96 16 24 W - 271 703.000 242,816
02/20/24 08:00 19.1 96 22 76 W - 271 702.300 86,708
02/20/24 07:00 18.1 95 18 58 W - 279 701.780 9,989
02/20/24 06:00 17.7 95 17 42 W - 272 702.360 0